Theta_e
348 344 341 337 331 328 326 329 330 335 337 338 338 338 334 324 323 323 323 324 333 331 330 328 324 322 322 322 322 323 324 324 328 331 331 330 328 328 328 327 325 324 324
346 344 342 338 333 327 324 327 327 327 331 333 333 331 326 323 323 322 322 322 322 322 323 323 322 322 322 322 323 324 329 331 332 336 336 335 333 327 327 327 328 329 328
346 344 342 339 335 329 323 324 324 323 323 323 324 323 322 323 323 323 323 323 323 323 323 323 323 323 323 324 329 330 333 338 339 339 337 339 336 333 339 335 329 327 327
347 344 343 340 336 332 322 321 322 320 320 320 320 320 323 324 324 324 325 324 324 324 324 325 325 326 325 327 336 339 341 342 342 341 341 341 341 339 339 339 333 329 328
346 343 344 341 338 334 323 320 319 320 320 320 320 321 323 324 324 324 326 326 326 326 327 328 329 329 330 335 338 341 342 342 343 342 342 342 342 341 339 339 337 333 330
344 343 344 343 339 335 327 319 320 321 321 321 321 322 324 324 324 324 326 328 329 329 330 330 330 330 330 330 330 336 339 341 341 341 341 341 341 340 338 339 339 338 332
341 343 344 344 339 336 331 320 320 321 322 322 322 323 324 323 323 323 324 325 327 327 329 331 332 333 332 331 331 331 336 339 340 338 340 337 337 337 338 338 338 340 336
336 343 345 344 340 337 335 327 320 321 323 323 323 324 324 323 323 322 322 323 324 325 325 326 326 328 332 333 333 333 333 333 332 332 333 334 330 336 337 335 335 338 340
341 343 344 344 341 337 337 332 325 320 322 324 324 324 323 322 322 322 322 322 322 322 323 323 323 323 323 324 324 323 323 324 325 325 325 325 325 329 333 332 332 333 337
343 343 343 344 342 339 337 336 332 326 321 322 324 324 323 323 322 322 322 322 322 321 321 321 321 321 321 322 322 322 323 324 327 330 330 328 328 331 331 337 337 335 332
344 343 343 344 342 340 338 338 335 332 327 322 322 324 323 324 324 324 323 323 322 322 321 322 322 322 322 322 322 322 322 323 328 331 331 331 332 333 333 334 335 335 332
342 342 343 344 342 341 339 338 338 335 332 327 322 322 324 323 324 324 324 324 322 322 325 325 324 323 322 321 322 324 322 323 330 332 332 332 332 332 334 336 339 339 337
337 341 341 344 342 341 341 339 338 337 334 331 325 322 322 323 324 324 323 324 325 329 332 333 335 335 329 330 328 331 331 332 334 335 336 340 340 341 342 342 342 343 343
339 336 336 340 342 342 341 341 339 338 336 333 328 322 322 322 323 324 324 325 328 332 333 335 336 337 336 335 335 336 336 335 335 335 335 337 337 340 342 343 344 344 344
334 332 331 331 336 340 341 341 340 339 336 332 327 323 323 323 322 322 322 328 336 337 336 336 337 336 336 336 337 337 336 336 335 334 333 333 333 333 334 340 342 343 342
332 330 327 325 328 332 335 337 339 336 331 327 324 323 322 321 321 320 322 331 336 339 340 340 340 339 336 335 333 334 334 335 336 335 334 332 334 337 341 341 339 336 338
332 329 326 325 328 329 332 329 326 324 323 322 323 324 332 340 342 333 329 342 343 343 344 343 341 342 341 338 337 337 337 337 336 336 335 334 333 333 336 338 337 335 333
332 330 327 325 325 325 326 326 327 328 332 337 342 344 346 346 347 347 346 346 346 347 348 348 347 340 343 338 338 338 338 338 337 335 334 335 335 335 335 334 333 332 332
333 332 329 327 327 327 330 338 343 338 341 345 346 346 346 347 347 347 347 347 346 347 349 349 342 337 337 336 335 334 335 335 333 336 337 336 333 334 335 335 333 334 335
342 338 331 330 330 330 335 342 344 345 344 347 349 347 348 348 349 347 346 347 347 348 348 342 338 336 336 337 336 336 338 337 338 338 337 337 337 335 336 336 336 337 337
345 337 334 336 333 334 337 341 344 346 345 345 346 346 347 346 345 345 348 348 349 345 342 344 341 339 339 338 340 338 337 336 335 337 336 334 333 332 333 333 334 335 335
345 343 343 339 340 341 341 343 345 347 346 345 346 346 345 344 344 343 343 344 343 341 339 341 341 340 340 340 337 336 336 333 335 333 332 330 330 328 330 331 329 328 327
346 345 345 345 344 344 344 345 341 335 333 337 336 344 345 343 344 342 343 343 342 341 340 341 339 337 335 335 334 333 335 335 331 330 325 326 318 318 312 309 308 308 309
346 346 346 345 344 344 343 340 340 335 340 337 339 330 335 338 343 343 342 342 342 341 338 336 334 332 331 329 328 328 328 329 324 323 320 311 308 307 308 308 309 312 314
345 345 344 344 340 334 336 335 334 334 336 334 336 337 342 341 342 342 339 337 336 334 332 330 328 325 321 318 315 313 311 310 312 310 311 309 308 308 308 308 307 307 308
345 343 339 333 332 334 336 342 342 337 332 333 339 339 338 339 338 336 333 332 331 329 325 320 316 313 311 310 309 308 307 307 308 309 308 306 306 307 308 310 308 312 311
Wind_Speed
30 28 26 23 20 17 19 21 21 21 20 18 15 14 12 12 13 14 14 15 15 13 12 11 10 11 11 12 11 11 11 12 13 12 12 11 11 11 11 10 10 10 10
35 31 28 23 19 17 19 21 21 20 20 18 16 14 14 13 13 13 14 15 14 13 12 11 10 9 9 10 10 9 10 10 10 8 9 9 10 11 11 11 11 11 11
36 33 29 24 20 17 19 20 21 20 19 18 18 16 15 14 13 13 14 14 14 13 12 10 9 8 8 9 8 7 6 5 4 4 5 7 7 8 10 11 11 11 12
36 35 30 26 21 18 17 20 21 21 21 20 19 18 16 13 13 13 14 14 14 13 11 10 9 7 7 7 7 5 3 2 3 4 5 6 7 6 7 9 11 11 12
36 33 31 26 22 19 17 20 22 21 21 20 19 18 16 15 14 14 13 13 13 12 10 9 7 5 5 5 3 2 1 1 3 5 6 6 6 6 6 8 10 11 11
34 32 30 27 23 20 18 20 21 21 21 20 19 18 17 15 14 13 13 12 11 9 8 7 6 5 4 3 3 3 4 4 6 8 9 9 8 8 8 8 10 12 12
35 33 30 28 24 20 18 19 21 20 19 19 18 17 15 14 13 13 12 11 10 8 7 6 5 5 4 4 4 5 7 9 10 10 11 12 12 11 11 12 12 12 13
32 33 31 29 25 22 19 18 19 19 18 18 17 16 14 13 11 10 9 9 7 6 5 4 4 5 6 6 7 8 9 11 14 14 14 16 16 14 14 15 15 16 15
33 33 32 30 27 23 19 17 17 18 17 16 16 14 13 11 10 9 7 6 5 5 5 5 5 6 7 8 9 10 11 12 14 14 15 15 14 14 15 17 18 19 17
32 33 32 31 29 26 22 19 17 16 17 16 15 13 11 10 9 7 6 6 5 4 4 4 4 5 6 7 9 10 11 11 11 12 14 13 12 13 15 16 20 21 17
33 33 33 32 30 27 24 21 19 17 17 17 16 14 12 10 8 7 6 5 3 3 3 4 5 6 7 8 9 10 11 12 12 13 14 12 13 15 17 18 18 18 14
35 33 33 33 31 29 27 24 22 20 18 16 16 15 13 12 10 8 7 5 3 3 2 3 5 7 8 10 9 11 12 12 13 14 16 16 17 18 18 18 18 18 16
36 33 33 32 32 30 28 26 24 21 18 16 15 16 15 14 12 9 7 6 5 4 4 4 5 7 8 10 10 10 11 13 14 15 17 16 16 18 19 19 18 14 16
35 33 32 33 32 31 27 25 24 21 18 17 14 14 15 14 13 10 8 6 6 7 6 7 7 8 9 10 12 14 14 14 15 17 17 18 21 24 24 23 23 20 20
34 31 30 31 31 29 27 25 22 19 18 16 14 13 12 12 11 10 9 8 8 8 8 9 11 11 12 14 16 18 17 17 19 21 23 25 27 29 30 29 30 29 29
32 29 27 26 25 25 24 22 20 18 16 14 12 10 10 9 10 11 9 7 6 7 10 12 12 15 16 18 18 18 19 20 22 25 27 29 30 31 33 34 30 29 34
33 30 27 25 24 22 19 18 15 13 11 9 8 8 6 4 4 6 6 5 6 9 11 13 15 19 21 21 22 21 21 22 25 27 27 27 31 32 32 30 31 34 36
33 30 26 25 24 22 20 16 13 10 9 8 7 6 6 6 6 6 6 5 7 9 12 16 20 22 24 24 23 23 24 25 27 28 27 28 34 31 28 29 24 20 19
31 28 27 25 24 24 21 18 13 12 10 8 9 10 10 11 12 10 9 9 10 12 16 18 20 21 24 24 25 26 28 28 28 28 28 28 25 22 20 22 23 24 24
27 27 28 27 27 26 21 20 18 15 14 10 10 13 13 11 14 16 14 13 13 14 17 18 19 20 22 25 27 30 26 24 26 26 20 19 24 24 23 23 24 25 25
29 30 30 28 26 25 26 25 23 22 18 12 9 12 13 11 11 13 11 11 13 15 15 17 16 19 25 24 26 26 24 21 17 15 22 27 25 24 24 25 26 28 30
31 29 27 26 25 26 25 23 16 16 16 16 12 15 20 15 13 9 10 11 10 9 13 19 17 20 21 19 19 21 17 27 17 32 24 29 25 30 25 25 28 31 33
27 28 29 27 27 23 23 22 16 18 19 13 11 13 19 11 10 7 13 15 16 13 12 14 15 15 17 17 17 13 10 10 31 22 29 25 34 30 35 35 34 32 31
25 25 26 24 22 18 17 18 25 24 9 2 10 16 24 17 12 9 9 9 8 8 9 10 14 15 14 15 13 12 12 16 14 21 16 31 31 35 34 32 28 25 26
22 22 21 22 16 13 11 10 12 13 14 6 9 19 22 9 2 4 6 9 10 12 12 12 11 12 13 15 17 19 20 19 17 25 27 38 37 30 28 25 26 26 27
20 21 18 15 12 14 6 8 9 14 12 16 25 16 11 7 7 8 9 10 11 11 9 10 11 13 15 16 16 18 19 19 21 23 29 36 36 36 26 26 21 32 28
Wind_Direction
171 167 164 164 167 177 175 170 165 163 164 166 176 166 154 143 140 143 143 141 144 142 141 138 131 126 120 109 105 105 101 94 89 85 80 70 63 60 56 47 41 31 24
170 170 168 167 171 175 173 172 171 173 174 180 178 166 156 146 142 143 144 144 145 145 144 139 133 127 119 114 112 113 104 95 93 82 74 65 54 48 46 40 36 25 13
173 172 169 169 171 172 173 174 174 176 178 176 168 161 155 151 144 143 145 144 143 143 141 134 129 125 121 119 117 119 106 92 83 67 55 40 37 37 34 28 28 22 8
175 174 172 171 171 173 174 175 174 172 170 169 165 161 158 155 151 148 145 142 140 139 136 129 125 122 122 126 126 118 107 70 35 26 14 12 10 11 17 19 20 20 5
174 175 174 173 174 174 174 173 171 168 168 167 166 164 161 161 159 157 151 146 143 142 137 130 127 126 135 146 147 158 171 330 346 342 345 348 343 349 350 355 2 3 1
174 176 175 175 177 176 175 174 171 169 168 168 168 167 165 166 165 165 162 159 156 154 149 145 150 163 179 196 221 238 269 283 308 314 318 328 333 324 323 326 335 334 338
175 178 177 179 179 178 177 175 174 171 169 170 171 170 170 169 170 171 171 173 176 175 171 172 179 195 217 227 243 261 271 281 290 298 301 311 315 317 318 313 313 312 316
178 180 179 181 181 180 181 178 178 175 173 172 174 175 174 175 174 175 177 183 187 193 206 215 218 229 238 247 257 265 272 277 283 291 294 296 305 303 309 315 314 304 302
181 182 182 183 183 183 184 182 180 181 180 179 178 178 179 178 180 182 182 193 201 214 227 240 252 262 268 269 272 275 276 278 284 292 298 301 302 302 308 314 316 311 301
186 186 184 186 186 185 185 185 185 186 188 189 187 185 183 182 182 183 186 196 209 225 241 260 272 276 278 281 284 286 286 286 285 297 303 306 306 307 308 321 325 310 302
189 190 188 188 189 188 188 189 190 192 194 196 197 195 195 192 191 192 198 207 224 254 284 304 303 294 290 291 287 287 291 294 288 298 301 299 301 301 306 309 315 320 301
190 190 191 191 191 192 192 193 197 201 201 203 203 206 205 204 206 211 217 224 239 256 286 293 293 294 296 294 296 297 298 293 292 301 298 294 294 300 301 306 310 310 298
192 191 194 195 194 196 197 199 203 206 209 212 213 213 215 216 220 225 235 238 241 254 261 275 296 307 299 302 299 304 301 298 300 306 307 310 300 291 292 294 292 298 305
192 196 197 199 200 201 202 206 210 212 217 222 225 225 226 229 233 238 251 263 260 267 272 279 291 299 300 305 306 306 306 307 305 305 305 297 295 295 292 294 290 283 274
195 199 203 206 206 205 207 213 217 221 228 232 235 237 239 244 251 258 265 272 276 280 298 295 300 300 299 297 299 302 304 301 305 304 300 297 299 305 297 291 290 290 284
198 201 203 207 207 209 212 217 222 229 234 238 242 244 246 248 254 253 255 263 293 301 297 299 307 309 308 305 306 301 300 302 308 305 311 316 314 313 309 307 303 311 296
199 201 200 197 198 203 209 216 222 230 233 230 232 233 222 229 253 262 250 265 297 309 317 311 311 307 310 306 306 304 302 303 304 306 309 313 315 310 307 306 312 311 301
201 199 197 195 192 191 195 198 199 198 210 209 197 197 195 209 232 249 263 286 300 311 313 314 313 307 303 303 301 301 301 302 304 311 311 316 320 314 307 312 308 314 319
200 201 198 196 194 193 191 184 179 189 199 201 216 227 235 246 254 265 280 284 287 302 304 304 308 308 307 306 301 300 299 299 302 308 319 310 326 346 344 324 307 307 301
199 203 200 201 202 199 194 189 192 188 194 220 247 241 237 249 262 254 256 264 276 285 295 306 307 307 307 304 302 305 306 305 303 310 312 322 325 327 326 316 309 307 301
200 199 202 206 207 207 201 202 204 205 192 210 247 247 233 246 272 254 243 252 268 284 304 305 298 298 312 309 309 304 307 311 316 307 322 322 323 325 325 319 315 312 308
203 199 205 205 208 209 210 210 218 210 209 196 211 258 261 257 234 261 268 263 269 270 283 282 293 300 310 325 334 337 331 325 314 321 330 326 326 325 323 322 317 313 312
204 209 209 209 215 216 219 219 241 246 246 233 242 312 341 316 302 290 286 266 269 263 276 300 307 317 327 335 332 331 326 311 315 322 322 321 318 321 320 319 318 316 313
198 209 213 214 219 220 229 235 247 248 272 206 126 328 278 281 268 278 280 303 317 317 323 335 342 339 335 330 332 323 312 300 316 316 306 321 321 324 328 326 327 323 316
192 198 204 211 234 220 204 228 238 253 320 240 251 239 234 235 12 349 351 4 359 360 358 352 346 340 336 334 332 330 327 330 321 322 320 324 331 339 340 346 341 336 330
186 197 213 183 167 161 196 249 177 146 131 160 194 176 148 112 73 58 39 7 353 345 344 349 349 340 334 332 329 330 331 333 330 333 328 331 339 344 349 351 346 346 339